Location: Centerville
(32.8776°N, 96.6203°W)
Time: 12:55:33
(UTC+00:00)

Cosmos 2237 - Visible Passes

Search period start: 23 October 2021 00:00
Search period end: 02 November 2021 00:00
Orbit: 844 x 857 km, 70.8° (Epoch: 22 October)

Date Brightness Start Highest point End Pass type
(mag) Time Alt. Az. Time Alt. Az. Time Alt. Az.
23 Oct 4.3 00:34:37 10° S 00:40:08 53° ESE 00:45:41 10° NNE visible
23 Oct 6.6 02:20:45 10° WSW 02:24:41 19° WNW 02:28:38 10° NNW visible
23 Oct 7.0 09:36:23 10° NNE 09:38:55 13° NE 09:41:26 10° E visible
23 Oct 4.1 11:18:04 10° NNW 11:23:49 79° WSW 11:29:29 10° SSE visible
24 Oct 4.4 00:22:19 10° S 00:27:49 53° ESE 00:33:22 10° NNE visible
24 Oct 6.7 02:08:26 10° WSW 02:12:22 19° WNW 02:16:19 10° NNW visible
24 Oct 7.0 09:24:05 10° NNE 09:26:36 13° NE 09:29:07 10° E visible
24 Oct 4.1 11:05:46 10° NNW 11:11:30 79° WSW 11:17:11 10° SSE visible
25 Oct 4.4 00:10:00 10° S 00:15:30 53° ESE 00:21:04 10° NNE visible
25 Oct 6.7 01:56:08 10° WSW 02:00:04 19° WNW 02:04:01 10° NNW visible
25 Oct 6.9 09:12:37 11° NE 09:14:18 13° NE 09:16:48 10° E visible
25 Oct 4.1 10:54:45 17° NNW 10:59:11 79° WSW 11:04:52 10° SSE visible
25 Oct 4.4 23:57:41 10° S 00:03:12 53° ESE 00:08:45 10° NNE visible
26 Oct 6.7 01:43:48 10° WSW 01:47:45 19° WNW 01:51:42 10° NNW visible
26 Oct 7.0 09:02:37 13° ENE 09:02:37 13° ENE 09:04:29 10° E visible
26 Oct 4.0 10:44:45 40° NNW 10:46:52 79° WSW 10:52:33 10° SSE visible
27 Oct 6.7 01:31:30 10° WSW 01:35:26 19° WNW 01:39:24 10° NNW visible
27 Oct 4.0 10:34:41 79° SW 10:34:41 79° SW 10:40:14 10° SSE visible
28 Oct 6.7 01:19:11 10° WSW 01:23:08 19° WNW 01:27:05 10° NNW visible
28 Oct 5.1 10:24:30 38° S 10:24:30 38° S 10:27:55 10° SSE visible
29 Oct 6.7 01:06:52 10° WSW 01:10:49 19° WNW 01:14:47 10° NNW visible
29 Oct 6.1 10:14:10 19° SSE 10:14:10 19° SSE 10:15:37 10° SSE visible
30 Oct 6.7 00:54:34 10° WSW 00:58:30 19° WNW 01:02:28 10° NNW visible
31 Oct 6.7 00:42:14 10° WSW 00:46:12 19° WNW 00:50:10 10° NNW visible
01 Nov 6.7 00:29:56 10° WSW 00:33:53 19° WNW 00:37:52 10° NNW visible
